Theta_e
302 302 301 301 301 300 300 300 301 302 302 301 301 301 301 301 301 301 302 303 304 304 304 305 305 306 306 307 307 307 308 309 313 317 320 323 313 314 317 319 320 319 316 318 330 337 330 330 332 333 338 343 349 351 351 351 348 357 369 361 355 358 356 355 356 352 352 353 351 349 350 355 355 353 351 347 350 352 352 353 352 350 350 350 350 349 349 350
301 301 301 300 300 300 300 301 302 302 301 301 302 302 303 302 301 301 302 303 304 304 305 305 305 306 306 307 308 308 309 312 317 318 320 316 314 315 315 316 318 318 320 321 327 334 331 330 331 333 338 343 348 351 351 350 349 355 363 359 355 360 359 356 354 352 352 352 351 349 350 353 351 351 351 350 351 351 351 353 352 352 351 351 350 350 349 350
302 303 302 300 300 300 300 301 302 301 300 301 302 303 303 302 301 301 302 303 304 304 305 306 306 307 307 308 308 309 312 316 321 324 322 315 316 314 315 316 317 320 320 321 325 330 332 331 331 333 337 341 344 348 349 348 349 350 354 360 361 357 355 357 353 350 350 350 351 350 351 351 348 349 351 349 350 352 354 354 354 355 353 351 349 349 349 350
301 303 302 300 300 300 300 300 300 300 300 301 301 302 302 302 302 302 302 303 303 304 305 306 307 309 309 308 309 311 315 322 327 326 322 322 321 316 316 315 316 321 320 319 323 327 330 331 332 333 336 341 342 344 348 346 346 349 351 357 361 357 355 354 350 349 348 348 353 352 353 355 349 348 351 349 352 354 355 355 355 355 353 351 349 349 348 349
301 302 300 300 300 300 300 300 300 300 300 300 301 302 302 302 303 302 303 304 304 305 305 307 309 312 312 310 310 314 319 327 327 323 321 325 326 322 318 316 317 319 321 320 322 325 327 329 331 333 336 340 342 343 346 344 343 347 349 350 356 358 357 354 351 352 348 349 358 357 353 353 348 347 350 348 353 353 353 354 354 353 352 351 349 348 349 349
302 301 300 301 300 300 300 300 299 299 299 300 301 301 302 302 303 304 303 304 304 305 306 308 313 314 314 311 311 315 323 326 323 323 322 322 325 326 321 318 318 319 322 322 322 324 325 327 330 333 336 339 341 343 344 343 343 346 348 350 357 356 356 354 349 352 351 349 357 355 350 350 349 350 349 348 350 350 350 353 352 352 351 350 349 348 348 349
302 301 301 301 300 300 300 300 299 299 299 300 301 301 302 303 304 305 305 305 305 306 308 311 315 316 314 312 314 318 322 323 322 324 325 322 321 324 323 320 319 321 323 323 322 323 324 326 329 331 335 339 341 343 343 343 343 345 346 351 357 353 353 353 347 349 350 349 352 350 347 348 350 351 348 346 347 348 350 351 350 350 351 350 350 349 349 350
302 302 302 302 301 301 300 300 300 299 300 300 301 301 302 304 305 306 307 307 306 307 310 313 316 315 314 314 320 322 319 322 322 322 323 322 320 321 325 324 321 323 324 323 322 322 324 325 327 331 334 338 341 342 343 342 342 345 344 346 352 352 352 351 348 349 349 351 350 349 350 347 348 349 346 346 346 348 350 350 350 349 350 350 350 350 350 351
302 301 302 301 301 301 301 301 300 300 300 300 301 302 303 305 306 308 308 309 308 309 313 315 316 316 314 317 323 323 322 323 322 323 321 321 321 320 325 326 324 324 323 323 323 322 324 325 327 330 334 338 340 342 343 342 342 343 343 342 348 351 351 349 350 350 350 352 349 351 356 349 346 346 345 347 346 349 351 349 350 350 350 350 350 350 350 351
301 301 301 301 301 301 301 301 301 300 300 301 302 302 304 306 307 309 309 310 309 310 315 317 317 317 315 318 321 322 325 322 323 324 322 322 321 320 324 326 324 323 322 322 322 322 324 326 328 329 333 336 339 342 342 342 341 341 343 342 345 348 348 350 350 350 351 351 348 356 362 352 345 345 346 349 346 349 352 351 350 350 351 350 350 350 351 351
302 301 301 301 301 301 301 301 301 300 301 301 302 304 305 307 308 309 310 311 310 313 317 317 317 317 317 320 320 320 323 322 324 324 325 324 321 321 323 325 324 323 322 322 322 323 324 327 329 331 334 336 339 342 343 342 339 339 341 340 342 346 349 350 351 352 352 352 346 354 360 350 346 347 346 349 347 349 351 352 351 351 352 351 350 351 352 351
302 301 301 301 301 301 301 301 301 301 301 302 304 305 307 308 309 310 310 312 311 314 318 317 318 318 319 321 319 320 321 323 324 323 326 326 322 321 321 324 324 323 323 322 323 324 324 327 331 335 336 337 339 342 342 341 339 338 338 340 341 344 349 351 353 354 352 351 345 348 351 348 351 351 346 347 348 347 349 352 352 352 352 351 352 352 352 351
301 301 301 301 301 301 301 301 301 301 301 303 305 306 308 309 310 311 312 313 312 315 318 317 318 319 321 323 322 320 321 323 323 323 324 325 325 323 321 324 325 324 322 323 324 325 325 327 332 335 336 337 340 341 341 339 338 338 337 338 340 341 344 348 351 352 351 349 346 347 340 343 358 354 345 348 347 347 349 350 351 351 352 352 352 353 353 352
301 301 301 301 301 301 301 301 301 301 302 304 306 308 309 311 312 313 314 314 313 317 318 317 319 321 321 324 322 319 321 322 323 323 323 323 326 325 324 324 325 325 323 324 326 327 327 327 330 333 333 334 336 337 338 337 336 337 338 337 339 334 336 345 345 346 349 346 347 347 334 339 356 352 345 347 348 348 349 348 349 351 353 352 353 353 352 352
301 301 301 301 301 301 300 301 301 301 303 305 308 309 310 313 314 316 315 314 316 318 317 318 320 322 324 325 322 320 323 323 324 325 324 325 325 326 325 324 325 327 326 325 326 327 329 329 330 331 331 331 332 333 336 337 335 337 334 330 336 333 334 346 343 343 345 344 348 346 335 340 350 348 346 347 347 347 348 348 349 351 353 352 353 354 352 352
302 302 301 301 301 301 301 301 301 301 303 306 309 310 312 314 316 317 316 316 318 318 318 321 322 323 327 328 323 323 326 327 326 323 325 326 325 326 326 324 326 327 328 327 326 327 328 330 330 330 330 329 329 332 334 331 330 336 333 324 329 331 332 341 343 343 344 343 346 344 340 344 344 346 347 346 346 347 349 348 348 350 351 352 353 354 352 353
302 302 302 301 301 301 301 301 301 302 304 306 309 311 313 314 316 318 317 318 321 320 319 323 324 324 328 327 324 325 326 329 327 324 325 325 324 327 326 325 325 326 327 327 327 327 327 329 330 329 329 328 328 331 328 322 321 329 332 327 329 332 331 333 339 343 343 343 345 345 345 344 343 347 347 346 347 348 350 349 349 350 350 351 353 353 353 353
302 302 301 301 301 301 301 301 301 303 304 306 309 311 313 314 315 318 319 323 325 323 322 324 325 326 328 327 328 328 326 328 327 326 325 324 323 324 325 325 325 326 327 326 327 327 327 329 330 330 328 327 329 328 322 320 323 324 326 325 326 331 331 331 336 341 342 342 343 345 345 344 345 348 348 347 348 349 351 350 350 350 349 351 353 354 353 353
302 302 301 301 301 301 301 301 302 304 305 307 310 312 314 314 317 321 323 324 323 322 324 325 327 328 324 324 326 325 326 327 326 327 324 324 324 322 324 325 326 327 326 326 327 327 328 330 330 329 327 326 328 327 325 327 329 329 330 328 325 325 329 336 340 340 342 342 342 344 343 343 345 349 350 347 347 350 349 350 350 350 349 351 353 354 354 354
302 302 301 301 301 301 301 301 302 305 306 306 310 313 312 310 312 317 318 314 311 312 313 315 319 320 317 319 320 321 324 322 323 326 324 323 323 322 322 324 328 329 327 327 327 328 328 330 330 329 328 328 328 327 329 330 331 333 334 331 329 326 327 337 341 338 339 339 339 344 343 343 344 347 351 348 347 349 349 350 350 349 350 350 353 355 355 355
302 302 302 301 301 301 301 302 304 307 307 308 312 313 310 306 307 309 310 309 309 310 310 310 312 313 313 315 316 317 318 318 320 322 324 324 322 322 320 322 329 330 328 327 328 329 329 328 329 331 331 330 329 329 328 329 331 332 331 328 327 327 328 337 339 337 338 337 336 342 342 342 342 344 348 348 348 348 348 349 349 349 351 350 353 355 355 355
302 302 302 301 301 301 301 302 305 308 309 312 315 312 307 307 308 308 308 309 310 310 310 311 312 312 313 313 314 315 315 316 317 319 323 324 320 320 319 322 329 331 329 328 330 330 328 327 329 331 332 331 330 329 328 329 330 330 330 327 323 327 330 334 337 337 336 335 336 342 340 340 343 341 343 347 348 349 348 348 348 350 352 352 353 354 355 356
302 302 301 301 301 301 302 303 306 309 311 313 314 309 307 308 308 308 310 309 310 311 311 311 311 312 312 313 313 314 314 316 317 319 322 323 320 319 320 323 330 333 331 330 332 328 324 327 330 330 332 333 332 330 329 329 329 330 331 325 322 327 326 322 330 336 336 336 338 342 339 338 343 342 342 345 347 349 349 348 348 349 352 353 352 352 355 356
302 302 302 301 301 301 302 304 307 309 311 313 312 308 308 308 308 309 309 310 311 311 312 312 312 313 313 314 314 313 313 316 317 319 321 322 321 318 321 326 332 334 333 332 333 329 327 330 331 330 334 336 333 331 332 328 326 328 332 329 325 328 326 323 329 335 334 335 340 339 330 331 342 344 343 343 346 349 349 348 348 348 350 351 352 353 354 355
302 302 302 302 302 302 302 305 308 309 312 314 310 308 309 308 309 310 309 310 313 314 315 315 314 315 315 315 315 313 313 315 317 319 321 322 320 320 321 327 332 334 332 332 332 331 330 332 333 332 334 336 333 332 331 329 325 325 331 334 331 331 330 329 331 329 323 324 335 335 321 324 339 341 343 343 343 348 349 349 348 348 350 351 352 354 354 354
302 302 302 302 302 303 305 306 307 309 313 313 309 309 309 308 309 308 309 313 316 319 320 318 317 317 316 316 316 314 313 315 318 319 322 323 321 321 323 327 331 331 330 331 331 330 331 333 334 333 333 334 334 332 332 332 325 320 329 334 334 333 331 330 329 322 315 318 334 335 324 323 331 335 343 344 342 345 347 349 349 348 351 352 353 355 355 354
302 302 302 303 303 304 307 308 307 310 313 312 310 309 308 308 308 309 312 316 320 323 320 319 318 315 315 317 316 314 312 315 319 319 321 323 322 322 325 328 330 329 331 332 328 329 333 335 333 331 331 331 332 331 333 334 325 321 330 331 331 331 331 331 328 320 318 322 330 333 330 325 323 330 342 344 342 344 345 347 350 350 352 353 354 356 355 354
302 302 303 304 303 306 308 309 310 313 313 311 309 308 308 308 308 310 314 315 317 319 319 317 318 315 314 318 317 313 314 317 319 320 321 323 322 323 325 327 329 330 333 330 324 329 334 334 332 330 328 327 329 331 332 334 327 326 331 331 331 332 331 333 327 321 321 320 319 324 327 324 321 331 343 343 340 343 344 346 348 350 352 353 355 356 355 354
303 302 303 304 305 307 309 310 312 313 311 309 308 308 308 308 309 312 316 318 316 315 319 318 317 315 314 317 317 314 315 318 319 320 322 323 323 323 325 325 326 328 330 330 328 331 332 332 330 328 326 325 327 331 331 330 330 329 330 332 333 332 332 333 327 320 319 317 314 318 321 321 320 327 335 336 334 338 343 344 346 350 353 354 356 355 355 355
304 303 304 305 307 308 309 311 313 311 309 308 307 308 308 309 311 313 316 320 316 311 316 316 314 314 313 316 317 316 315 316 319 321 322 323 323 323 324 324 325 325 327 330 329 330 331 330 330 328 326 326 327 329 328 327 329 329 330 330 330 330 331 331 326 320 316 315 315 315 317 318 318 323 330 333 335 338 344 343 343 349 352 355 355 353 355 356
305 304 305 307 307 309 310 312 311 310 309 307 307 308 308 310 312 312 312 314 310 310 312 312 312 312 312 313 316 317 316 315 316 319 321 322 323 323 324 323 323 323 322 323 325 328 328 328 330 329 326 327 328 328 329 328 328 328 331 329 322 322 322 320 319 318 314 313 314 316 317 315 313 320 332 338 341 340 341 342 340 345 352 354 353 352 354 356
305 305 306 308 309 310 312 312 311 310 309 306 307 308 309 310 312 311 311 309 309 309 309 310 310 310 311 312 314 317 319 318 316 317 321 322 323 324 323 322 321 319 315 316 319 322 325 326 328 328 328 328 327 326 327 328 329 329 329 323 316 315 316 314 315 315 313 312 314 316 316 313 312 322 336 340 343 341 339 342 339 342 350 352 352 353 354 356
306 306 307 310 312 313 313 312 312 311 308 306 308 308 308 311 312 311 310 309 309 309 309 309 309 310 311 312 314 316 319 320 318 318 319 321 323 324 323 323 322 319 315 315 314 315 318 324 326 327 327 328 327 323 320 322 326 327 323 316 314 315 314 315 315 313 313 313 313 316 316 312 312 323 337 338 337 338 338 341 339 341 349 351 352 353 353 355
306 307 309 311 313 314 313 312 312 310 307 307 308 308 309 311 311 310 309 309 309 309 309 308 309 310 311 312 315 315 315 317 318 318 319 320 322 322 323 324 323 322 320 317 314 313 314 319 323 325 326 327 328 325 323 325 325 326 327 322 316 314 314 315 313 312 314 314 313 314 314 310 311 322 335 334 333 334 335 340 339 343 349 350 352 353 353 354
308 309 311 312 314 314 313 313 311 308 307 308 308 309 309 310 310 309 309 309 308 309 308 308 309 310 311 312 314 313 312 313 315 317 319 319 320 321 324 324 323 324 322 316 315 315 312 315 324 327 327 328 327 327 328 328 322 324 328 322 315 317 317 315 314 313 314 316 315 313 313 317 322 330 335 332 332 332 332 337 338 343 348 349 351 354 352 352
309 311 313 313 314 314 311 310 309 307 308 309 309 310 310 310 310 309 309 308 308 308 308 308 309 309 310 311 311 311 311 312 314 315 318 319 320 322 324 325 324 325 323 318 318 317 313 316 327 328 327 328 328 327 329 326 322 323 322 316 319 326 322 314 314 315 313 315 317 314 312 319 323 326 330 330 332 332 330 332 333 339 346 348 350 351 351 351
310 312 314 314 314 313 310 308 308 309 309 309 310 311 310 310 309 308 308 308 308 308 308 308 309 309 310 310 309 309 310 312 314 315 316 317 319 322 324 326 325 325 326 323 320 322 317 316 326 329 326 328 328 328 329 329 327 321 316 318 325 328 323 318 315 316 315 314 315 312 312 315 314 318 327 329 329 330 330 330 330 336 343 347 349 350 349 349
310 312 314 314 313 312 309 308 308 309 309 310 311 312 310 309 308 307 308 307 307 308 308 308 308 309 309 309 309 309 310 312 313 314 316 316 318 320 320 324 325 323 325 324 322 325 322 315 322 329 328 327 329 328 325 328 331 326 321 326 325 317 315 316 314 315 317 315 314 312 312 313 312 316 323 326 327 328 331 330 328 332 341 345 347 349 349 349
311 313 315 312 311 310 308 308 308 309 310 311 311 310 309 308 308 307 307 307 307 308 307 308 308 309 309 309 309 309 310 312 312 313 315 316 317 318 318 319 320 318 320 322 323 326 325 317 318 327 330 328 328 326 320 321 328 329 326 327 325 318 316 317 314 314 316 317 316 315 313 314 320 326 324 326 328 328 332 336 331 330 339 345 345 347 349 350
311 313 315 312 310 310 308 308 309 310 310 310 309 309 308 307 307 308 308 307 307 307 307 307 308 309 309 309 309 309 310 311 311 312 313 314 315 318 319 316 316 317 317 319 322 325 326 321 316 324 329 324 322 324 322 322 324 324 322 320 319 319 320 319 316 314 315 317 318 318 316 317 329 335 329 328 331 330 331 338 338 332 335 343 346 345 347 350
311 312 315 311 310 311 309 308 309 310 310 309 308 308 308 308 307 307 307 307 307 307 307 307 307 308 308 308 309 309 310 310 310 311 311 313 316 317 318 315 315 317 317 319 324 324 325 323 317 318 321 317 320 328 329 328 328 325 322 319 318 318 316 314 316 314 312 314 316 318 318 323 335 336 334 330 330 331 331 334 339 338 334 340 346 345 346 349
310 311 313 310 311 311 309 307 309 310 309 308 308 307 308 309 307 306 307 307 308 307 307 307 307 308 308 308 309 309 309 309 309 311 312 313 316 316 316 315 315 316 316 318 323 325 327 327 319 316 319 321 325 330 329 328 330 329 327 326 324 321 314 311 314 316 312 312 314 313 315 329 348 342 336 333 330 331 332 333 337 337 332 335 343 346 345 347
309 310 311 311 311 310 308 308 309 310 308 308 308 307 308 308 307 307 307 307 307 307 307 307 307 308 307 307 309 308 308 309 309 311 313 314 315 314 314 314 314 314 316 318 321 324 327 328 321 317 321 326 328 328 330 331 330 327 326 328 326 322 319 318 321 323 316 312 314 312 312 329 353 349 336 334 333 331 332 335 335 336 334 336 343 346 345 347
308 309 311 311 310 309 308 308 309 308 308 307 307 307 308 307 306 307 307 306 307 307 307 308 307 307 307 307 309 309 308 310 311 312 314 315 314 313 313 313 313 314 314 317 322 323 325 328 327 323 320 320 323 324 323 327 328 326 327 328 327 326 325 323 324 325 319 313 314 314 313 326 350 354 339 335 336 332 332 334 335 334 332 334 343 347 345 345
308 309 310 310 309 309 308 308 308 308 308 307 307 307 307 307 307 308 307 306 307 307 307 307 307 307 307 307 308 309 308 310 312 313 315 315 313 313 312 312 313 312 314 319 323 321 322 326 330 330 326 321 321 320 318 321 324 326 327 327 326 327 324 321 319 318 319 320 317 315 317 326 341 347 340 336 337 336 333 333 334 336 339 342 344 345 345 345
308 309 309 309 309 308 308 308 308 308 308 307 307 307 307 308 308 308 307 307 307 307 307 307 308 307 308 308 308 308 308 309 312 314 314 314 313 312 312 312 311 311 315 321 320 318 320 325 328 333 333 328 326 328 330 327 321 320 324 324 326 327 325 324 318 316 325 327 319 322 328 325 329 337 336 333 337 339 336 338 346 350 357 360 349 344 347 345
307 307 308 309 310 309 308 308 308 308 308 308 307 308 307 308 308 308 307 308 308 308 307 308 308 308 308 308 308 308 308 309 311 312 313 313 313 312 311 311 311 312 316 319 317 316 320 325 327 330 333 333 331 333 335 330 322 320 322 323 324 327 325 322 317 321 335 327 318 333 343 326 326 337 339 339 341 341 339 343 351 352 356 360 352 347 347 343
307 306 307 308 309 310 309 309 309 309 309 308 307 308 308 308 308 308 308 308 307 308 308 308 308 308 308 308 307 308 309 309 310 312 312 313 312 312 312 312 311 313 315 315 314 314 318 324 327 326 327 330 332 332 333 331 328 325 324 324 324 325 323 320 319 328 338 328 326 347 349 333 335 340 339 343 343 338 339 343 347 348 351 355 350 347 348 352
306 306 307 307 307 308 308 308 309 309 308 308 308 308 308 308 308 308 308 308 308 307 308 308 308 307 308 308 308 309 310 310 311 311 312 312 312 312 313 313 313 313 313 313 313 312 315 323 325 323 324 328 331 333 333 332 330 327 327 327 327 326 323 322 324 331 336 332 340 356 349 338 339 338 337 342 339 335 340 341 341 344 349 351 348 346 350 357
307 307 308 307 306 307 307 308 309 309 309 309 309 308 307 308 308 308 308 308 308 308 308 307 307 307 308 308 308 308 309 310 310 311 311 311 312 313 313 313 313 312 311 312 313 312 314 320 322 321 324 327 329 333 332 330 330 328 327 329 328 326 325 323 323 329 332 331 336 347 344 339 337 336 339 343 342 340 340 338 338 340 342 343 346 346 348 353
308 307 307 307 306 307 308 308 308 309 309 309 309 308 308 308 308 308 308 307 307 308 308 307 307 307 307 308 308 308 308 308 309 309 309 310 311 312 312 312 311 311 311 312 313 313 314 317 318 321 325 327 328 331 331 329 328 325 324 329 330 325 323 323 324 326 332 331 331 334 335 337 338 339 339 339 340 341 339 339 342 342 341 342 344 344 348 351
308 307 307 307 307 307 307 308 308 309 309 309 309 309 308 308 308 308 309 308 307 308 308 308 307 307 308 308 308 308 308 307 307 308 307 308 309 309 310 310 309 310 311 312 313 313 313 315 316 320 325 327 327 329 329 326 326 324 325 329 332 332 328 325 325 328 333 334 331 332 339 347 347 340 337 338 339 340 342 342 344 345 346 343 341 342 345 344
Wind_Speed
29 30 30 31 31 32 32 32 31 30 30 31 31 31 29 28 27 27 27 23 21 21 22 22 22 22 21 20 20 19 19 18 18 12 15 27 32 24 18 17 12 8 12 16 13 12 13 13 15 18 14 10 8 6 9 9 6 3 2 3 4 4 4 3 5 4 4 4 5 3 7 7 3 6 5 12 11 12 14 12 14 13 15 19 23 32 34 36
31 31 32 32 33 34 34 34 32 31 33 33 33 32 30 30 29 28 26 23 21 21 22 23 23 23 21 20 18 17 16 18 17 16 29 36 30 25 22 17 17 13 11 18 19 16 13 11 14 15 10 6 7 8 8 8 8 5 3 4 5 5 5 3 6 5 5 6 7 8 4 7 9 8 4 9 12 10 11 13 17 17 17 20 26 32 31 34
32 31 33 34 35 35 36 35 35 35 35 35 35 34 32 31 29 28 26 22 22 23 23 23 23 22 21 18 15 12 12 15 11 17 31 31 27 31 30 21 17 16 15 20 22 20 15 14 16 13 9 7 7 9 10 8 8 7 5 5 5 6 6 3 6 6 6 6 8 9 4 3 5 9 4 9 14 9 10 13 17 18 20 21 22 27 30 31
33 31 34 36 36 37 37 37 37 37 37 37 37 35 33 31 29 28 26 24 24 25 24 23 23 20 18 16 10 8 8 10 6 10 16 14 18 26 31 31 22 19 19 19 20 20 18 17 17 13 9 7 7 9 10 8 6 6 7 6 6 7 6 4 5 5 5 5 6 8 6 7 2 9 7 10 12 9 10 13 18 21 22 23 21 23 26 26
34 34 36 37 37 38 38 39 39 39 38 38 38 36 34 32 30 29 26 25 25 25 26 24 21 18 15 12 4 3 4 4 1 1 8 9 8 15 25 32 26 22 21 18 18 19 19 16 13 12 9 6 8 8 9 11 8 5 8 10 7 6 6 5 5 3 2 2 2 7 6 5 4 8 8 11 9 7 10 15 20 21 22 23 21 21 20 20
35 36 37 37 38 39 39 39 40 39 39 39 38 36 34 33 31 29 27 26 26 26 25 22 18 14 11 6 2 0 2 2 3 4 8 13 6 7 19 27 28 25 22 19 17 16 15 13 11 10 8 7 10 9 9 12 10 6 7 8 8 9 7 4 5 4 3 4 4 7 7 2 1 3 7 11 10 10 14 18 21 19 21 23 22 20 18 18
36 37 37 38 39 39 40 40 40 40 40 40 38 36 35 34 32 29 27 26 26 26 24 19 15 11 6 2 3 2 2 8 16 9 5 10 11 2 16 25 29 26 23 19 15 13 12 13 12 9 8 8 9 11 11 12 14 10 7 7 10 11 8 6 7 7 8 8 8 9 6 6 6 3 8 12 12 16 18 20 21 19 20 22 20 19 18 17
37 38 38 39 39 39 40 40 40 40 40 39 37 36 35 34 31 28 26 26 26 25 22 16 12 8 2 2 2 3 4 16 23 14 14 12 6 1 16 27 29 27 22 20 16 13 11 13 13 9 8 9 9 11 12 12 13 11 9 9 10 11 9 9 8 8 9 8 8 7 8 6 10 5 6 11 14 19 20 20 20 20 20 19 19 19 17 17
37 38 38 39 39 39 40 40 40 40 40 39 37 36 35 33 30 28 27 26 26 23 19 13 10 6 2 2 3 2 9 21 21 13 16 17 8 4 17 26 28 26 20 20 19 15 12 10 13 11 9 9 10 11 12 11 9 10 12 12 11 12 11 9 8 9 9 6 7 5 8 9 5 6 5 11 15 20 21 20 20 20 20 18 18 18 16 16
39 39 39 40 40 40 40 40 40 40 40 39 37 37 35 33 30 29 28 26 25 21 16 11 8 3 4 4 4 4 11 15 14 16 19 15 13 13 19 24 28 26 18 18 18 16 13 11 11 11 9 9 10 11 12 11 8 10 14 14 13 14 13 10 9 11 7 7 9 10 4 12 8 7 7 14 16 21 21 20 19 19 19 18 17 16 15 16
40 41 41 41 41 41 41 41 40 40 40 38 37 37 35 33 30 30 29 27 23 17 14 10 6 3 6 5 4 6 10 8 11 12 23 19 17 20 22 24 28 27 19 15 17 19 18 16 13 8 7 7 8 10 11 13 12 12 13 13 14 13 13 12 11 10 7 7 13 12 8 8 7 5 8 18 17 20 22 20 19 17 16 16 17 15 13 13
41 42 41 42 42 43 42 42 41 40 39 38 37 36 34 33 31 32 31 25 18 13 12 9 4 5 7 5 9 19 17 12 14 8 19 21 20 21 21 24 26 28 23 14 15 23 23 22 17 10 7 6 7 8 7 11 13 13 13 10 10 10 10 11 10 10 10 7 12 10 5 5 5 4 10 21 17 19 20 19 19 16 15 15 15 14 11 12
42 42 42 43 43 43 43 43 41 39 39 37 36 36 34 33 33 32 29 22 13 11 12 8 4 7 6 3 15 29 25 22 24 21 17 17 20 20 19 24 24 26 26 19 16 22 25 24 19 12 9 7 7 5 6 10 11 11 12 7 6 7 8 10 10 12 14 9 10 9 3 5 5 6 11 21 17 18 18 17 17 15 14 14 13 13 12 12
42 42 42 43 44 44 44 43 41 40 38 37 36 36 35 34 32 29 24 16 9 9 10 6 6 8 6 7 17 24 25 27 27 26 25 18 21 21 20 23 22 24 26 22 20 22 25 26 19 11 9 8 6 6 8 9 8 8 8 6 5 4 5 10 12 13 13 9 10 9 4 6 8 10 15 20 18 19 17 16 16 15 14 13 12 12 13 11
42 42 42 42 43 43 44 44 42 39 37 36 36 36 36 33 28 24 19 11 7 8 6 2 9 8 4 10 19 21 20 24 29 29 25 20 20 20 21 24 22 24 25 23 23 22 22 21 14 8 7 8 8 8 8 6 6 5 4 4 4 4 4 8 12 13 11 8 10 9 4 4 9 14 20 20 20 20 17 16 15 16 16 14 13 13 13 11
42 42 42 42 42 42 43 43 41 38 36 36 35 36 34 27 23 22 15 6 6 6 1 3 11 10 4 6 11 14 11 15 24 29 25 21 18 16 21 24 20 21 23 23 23 19 19 15 9 7 6 7 8 6 5 5 6 4 4 4 4 5 5 6 9 12 13 10 11 11 5 4 6 14 21 20 22 20 16 16 15 17 18 15 13 13 13 11
41 42 42 41 40 41 42 42 40 36 35 35 34 35 31 21 20 18 8 2 5 5 5 5 7 8 7 10 10 11 8 13 19 22 22 23 20 17 18 18 15 16 17 19 20 15 13 10 6 6 6 6 6 5 5 7 6 4 4 6 6 7 7 7 8 11 16 13 12 13 9 8 6 14 21 19 21 19 15 16 14 14 15 14 13 14 14 12
42 42 42 41 40 41 41 41 39 33 33 35 33 36 29 18 19 13 2 1 2 4 8 8 6 5 6 8 7 9 9 10 17 20 20 23 22 22 18 11 11 14 12 12 14 12 8 7 6 5 7 7 7 8 8 7 7 6 6 6 6 8 8 9 9 9 16 17 13 14 12 11 6 17 20 17 20 18 14 14 13 12 13 13 14 15 14 14
43 43 43 42 42 41 40 40 36 30 32 33 32 31 20 11 12 5 2 0 1 3 5 5 5 4 8 9 9 13 17 17 15 21 20 22 23 22 19 12 12 14 11 8 10 11 8 5 6 7 8 10 11 11 10 7 8 11 10 7 8 8 8 9 11 11 15 17 14 13 13 12 9 17 19 17 19 17 15 15 13 11 12 12 13 14 14 15
44 44 45 45 44 42 41 40 34 28 30 34 34 26 11 8 8 1 2 5 6 10 12 12 11 12 17 18 18 19 22 26 12 17 21 23 21 17 14 11 11 12 11 9 9 10 8 6 9 11 10 12 13 14 12 10 11 13 12 9 10 10 8 10 13 13 12 14 13 13 13 13 12 15 19 19 18 18 17 16 14 13 12 12 13 14 15 14
45 46 46 46 45 43 41 39 31 25 27 31 28 15 6 10 9 6 11 11 10 12 17 20 17 18 20 20 24 22 14 18 16 9 22 24 18 14 11 11 11 10 11 12 9 8 8 10 13 13 12 12 13 15 14 13 14 14 12 10 8 8 8 11 14 15 11 11 12 13 12 12 13 14 18 19 17 18 19 17 15 16 14 13 13 15 16 13
46 45 46 46 45 43 40 36 28 23 25 26 19 8 8 13 13 16 17 11 12 14 19 23 21 21 21 24 34 27 8 11 19 14 17 23 15 12 11 12 12 10 11 12 9 7 9 13 16 14 12 13 13 14 16 16 16 12 10 9 7 7 7 11 15 15 10 8 9 14 12 10 12 14 15 19 18 14 17 17 14 16 15 13 14 14 14 13
44 45 46 44 44 42 38 33 24 21 24 23 17 11 14 20 21 22 16 10 14 16 18 22 21 20 19 21 30 26 11 11 15 15 15 19 13 12 12 12 14 11 12 14 11 9 10 13 15 13 12 15 15 14 16 15 13 10 8 8 8 10 8 6 11 14 10 7 8 13 11 8 9 11 11 18 21 15 16 18 15 15 16 16 17 15 15 16
44 45 45 44 43 39 36 28 19 22 28 24 17 17 23 26 25 24 14 6 12 15 16 20 18 15 19 18 18 17 11 11 11 13 15 17 12 12 12 12 14 12 12 16 17 14 13 8 11 15 15 15 16 15 15 11 9 11 12 10 8 12 13 9 8 11 9 8 10 11 7 5 7 9 8 12 19 18 17 19 17 17 17 18 19 16 17 18
46 46 45 45 40 37 34 19 15 28 30 20 18 24 28 26 25 25 14 4 8 10 8 11 10 10 19 21 14 10 9 12 14 13 14 16 15 11 11 10 10 13 14 18 17 15 15 9 12 17 17 16 16 14 15 12 8 11 14 14 13 13 14 15 13 9 5 6 10 12 6 5 7 10 10 10 14 17 17 19 20 18 17 18 18 17 17 17
47 46 46 43 36 37 29 9 15 32 24 14 21 29 30 26 29 27 12 3 6 6 1 3 5 5 10 13 10 7 8 11 14 17 16 16 18 11 9 8 6 12 15 14 12 8 11 12 11 16 17 18 17 13 15 15 8 8 12 15 17 15 14 16 15 9 4 4 9 14 8 4 7 10 12 12 14 17 17 20 21 18 16 17 17 17 18 16
48 46 45 39 32 33 21 7 20 25 12 14 26 31 30 28 32 25 7 2 4 4 2 1 2 3 3 6 12 9 6 5 10 18 19 16 18 12 11 10 7 10 11 8 9 8 11 15 14 15 17 16 14 11 13 16 11 7 10 15 18 17 17 16 13 9 4 3 6 13 10 4 5 8 11 13 14 14 15 19 22 18 16 19 19 18 19 19
48 46 42 36 30 23 15 15 21 14 10 20 28 29 30 32 31 16 2 1 4 5 3 2 4 2 5 2 16 12 5 8 10 14 17 18 19 13 12 13 10 11 12 10 10 8 11 17 17 16 15 11 12 12 13 15 12 8 9 13 16 17 18 16 12 8 6 5 4 9 9 5 4 6 9 12 13 13 12 16 22 21 18 19 20 20 21 21
49 45 40 35 27 16 14 17 16 13 17 25 26 28 32 30 20 5 1 3 4 5 5 5 9 8 14 10 12 14 8 6 7 10 16 18 18 14 10 12 11 11 15 15 11 7 9 14 16 15 13 10 11 13 14 15 12 9 11 11 10 14 16 14 11 7 5 5 5 6 6 5 4 5 8 10 11 12 12 12 17 23 23 19 20 21 20 19
49 45 38 34 25 19 20 18 14 15 21 26 27 31 29 19 7 2 3 3 3 8 8 7 12 15 20 17 3 10 12 10 7 7 14 13 16 16 8 8 11 10 11 15 14 10 10 10 13 14 12 10 10 13 16 16 13 11 11 10 8 8 9 9 8 5 5 6 8 8 7 5 4 5 7 10 12 13 13 10 11 19 23 20 19 20 20 18
50 43 36 29 23 20 16 12 13 16 21 27 29 26 18 6 1 2 3 3 5 10 11 12 17 19 21 19 11 8 11 13 11 7 10 9 12 14 9 7 9 8 7 10 12 13 13 11 10 11 12 12 10 11 15 16 15 12 8 8 7 5 4 4 4 6 7 6 7 9 9 7 5 5 7 8 13 16 15 14 14 17 22 21 18 19 19 17
49 42 33 22 18 17 12 11 18 20 21 26 23 14 6 3 1 3 4 6 6 8 11 15 19 20 21 19 13 12 10 10 12 11 7 9 10 11 12 9 7 8 9 8 8 10 12 14 10 9 14 15 12 8 10 12 13 11 7 7 6 3 4 4 4 6 7 6 5 7 9 7 5 5 8 6 8 14 16 17 17 17 22 23 20 20 18 17
49 40 29 18 16 20 18 17 19 19 22 24 15 5 2 3 2 3 6 6 6 10 11 15 21 21 19 16 12 13 14 7 10 12 10 9 10 11 15 13 10 10 9 6 7 8 9 11 14 14 11 15 15 8 7 9 10 11 9 7 7 5 5 6 4 3 4 5 6 7 7 6 5 4 7 8 7 9 13 16 16 16 23 25 23 22 19 19
46 35 27 19 16 18 17 16 17 17 22 19 9 4 3 3 2 6 8 6 8 13 13 15 22 22 14 11 10 10 12 11 6 8 11 9 9 9 13 17 16 11 6 5 6 8 9 9 14 16 8 12 17 12 7 8 8 11 10 7 7 6 5 5 4 3 3 3 6 9 7 4 5 4 7 8 9 9 8 12 12 12 21 24 21 21 19 18
41 32 27 21 19 16 11 11 14 15 17 11 4 4 4 3 3 6 8 7 8 11 14 17 18 17 13 9 10 15 12 11 16 14 10 8 8 9 8 13 17 13 7 6 7 7 11 9 10 14 11 12 18 15 10 9 8 8 8 7 7 6 4 3 4 4 4 1 3 7 5 2 4 5 6 8 10 12 10 8 10 11 20 22 18 19 19 17
42 33 24 19 18 13 8 7 10 14 12 6 3 4 3 4 6 6 7 8 8 11 15 15 12 11 11 9 11 19 16 12 16 14 9 9 8 12 10 10 15 16 11 6 5 6 9 8 8 13 16 16 16 15 14 10 6 6 9 10 6 6 5 3 3 3 4 2 3 4 5 3 4 7 7 8 10 14 15 12 10 10 20 23 18 18 19 18
43 30 18 19 17 9 9 11 11 12 9 4 4 4 3 4 5 6 7 8 9 11 11 9 7 8 11 10 10 16 18 14 14 11 9 12 8 4 6 8 13 15 18 13 7 7 6 6 8 14 18 19 15 15 16 13 8 6 8 9 5 5 6 4 2 3 4 4 4 6 9 6 5 6 8 11 11 12 15 15 13 10 18 23 20 19 20 19
37 23 13 16 12 4 10 13 11 11 5 3 4 4 4 5 5 6 7 8 9 10 8 6 6 7 10 11 10 15 16 12 12 11 9 9 7 10 12 4 2 6 11 14 10 9 8 6 8 14 18 17 14 14 13 14 14 9 7 9 7 5 6 5 4 4 5 5 4 8 11 9 7 7 9 14 16 13 12 16 17 12 15 19 21 23 22 20
25 14 7 6 5 6 13 14 11 8 4 3 3 2 5 7 8 8 7 6 8 8 7 6 6 7 8 11 11 12 12 10 11 10 8 7 7 13 17 13 16 26 24 17 10 10 10 5 5 12 17 15 11 11 10 12 15 11 7 9 8 6 5 5 4 2 4 4 4 6 7 6 7 8 13 17 17 15 11 11 15 15 14 16 18 21 21 18
15 6 7 11 18 15 19 15 9 5 3 4 3 2 5 6 8 11 10 8 6 5 7 7 8 7 7 10 11 9 9 10 12 9 7 9 12 13 16 16 17 26 29 25 13 8 9 7 6 8 13 14 10 10 12 13 13 11 8 8 8 6 4 5 4 3 3 3 3 4 5 5 6 7 13 17 15 15 12 9 11 12 14 17 18 18 19 19
11 4 7 16 26 25 20 11 6 3 2 3 2 4 7 6 7 10 11 11 7 5 7 8 8 8 7 9 9 8 8 8 10 9 7 9 9 8 12 18 20 22 24 21 13 8 5 7 8 8 8 10 12 13 14 15 14 12 8 6 9 8 6 6 6 5 5 3 3 3 3 6 6 4 9 16 15 14 14 11 9 8 11 16 18 18 19 20
8 4 12 25 34 30 13 3 6 4 1 3 4 5 7 8 8 7 8 10 8 7 7 7 8 8 8 8 9 9 8 7 9 9 8 11 9 6 13 21 22 20 17 13 12 13 10 5 8 9 7 7 12 16 16 16 16 13 10 7 8 9 8 6 5 6 6 4 5 2 3 6 6 5 6 14 14 11 12 11 9 8 9 12 18 20 19 19
4 8 23 32 31 25 10 2 6 4 3 7 8 8 9 8 8 8 8 8 8 7 7 6 8 8 8 9 10 10 9 7 8 9 11 13 11 11 18 21 22 20 15 10 11 15 13 5 5 8 8 9 10 14 17 16 15 12 11 10 7 9 10 7 4 6 6 5 5 2 3 6 6 7 2 10 12 11 11 10 9 8 7 8 17 22 19 17
5 8 16 24 28 23 8 4 6 5 5 9 10 11 11 9 7 8 8 8 7 7 7 7 7 8 9 10 9 10 10 6 6 9 11 10 11 16 20 20 20 17 12 10 11 11 9 5 3 4 6 6 8 11 14 15 14 9 9 12 11 10 13 9 4 4 4 7 8 4 3 6 6 6 7 9 11 12 12 10 9 9 8 7 14 21 19 16
7 5 6 14 23 17 6 5 8 7 8 10 11 12 11 8 7 7 8 9 7 6 6 7 8 8 8 9 9 9 9 7 5 7 7 9 12 14 16 19 20 15 14 20 20 11 7 6 4 3 5 5 4 6 8 11 11 8 9 15 15 14 13 11 5 4 4 7 8 6 4 6 5 4 7 7 6 8 10 9 7 8 7 6 11 17 19 17
6 5 4 8 11 8 5 8 10 8 9 10 9 10 11 10 8 8 8 8 6 7 7 6 8 9 9 10 10 9 8 7 5 6 7 9 9 10 16 20 19 19 20 25 24 12 5 6 6 6 6 6 5 5 5 12 14 10 12 15 16 17 13 9 7 5 5 5 6 6 6 5 3 3 6 4 3 4 6 7 6 5 5 5 9 14 17 18
3 4 7 7 5 5 6 8 9 9 11 11 7 7 11 11 10 8 7 7 7 8 6 5 7 9 9 11 11 10 9 8 6 7 9 10 8 12 19 19 16 19 21 21 20 12 5 6 8 10 10 9 11 14 9 13 19 17 16 14 16 20 17 10 8 8 6 7 5 7 8 7 5 3 4 6 5 5 6 8 8 7 7 7 10 16 18 19
2 3 6 8 5 5 7 8 10 12 14 13 8 8 11 12 10 8 7 8 9 7 4 4 8 10 11 11 10 9 9 7 7 7 7 8 10 12 16 18 16 14 15 15 14 11 6 6 7 11 13 12 13 16 13 6 12 17 18 16 15 19 22 16 9 9 9 7 5 7 10 9 7 6 6 7 6 8 8 9 8 7 9 8 10 16 16 13
2 4 5 7 5 6 9 11 12 13 13 12 8 7 9 10 11 11 9 9 10 6 4 5 9 11 12 11 9 8 7 6 6 7 6 7 10 9 10 14 14 11 13 12 12 11 6 6 12 15 14 13 12 11 11 8 3 7 13 18 16 15 21 20 11 8 10 9 7 8 11 10 8 7 7 5 5 10 11 9 9 10 11 10 10 13 13 10
2 2 4 5 5 7 9 9 10 10 10 10 8 6 7 8 9 9 9 10 10 7 5 8 11 11 12 11 9 8 7 5 6 7 8 8 7 6 5 6 10 13 15 11 10 12 9 8 15 16 9 8 9 8 11 12 7 2 4 14 18 14 17 20 15 9 8 8 9 9 9 7 5 7 5 4 8 11 10 10 9 9 10 10 10 11 12 11
4 3 3 4 5 6 6 7 7 7 7 7 7 8 9 11 11 11 9 8 10 9 8 11 13 10 10 10 9 10 10 8 8 9 10 9 6 4 4 4 9 14 14 10 9 11 10 9 12 11 6 5 4 5 12 14 8 5 5 8 11 9 10 16 15 11 7 9 10 7 6 4 4 8 9 9 12 12 10 10 11 9 9 9 9 8 10 12
5 3 1 2 4 4 5 6 7 6 6 6 7 9 11 13 15 14 9 5 8 11 10 12 13 9 7 8 9 11 11 11 12 10 8 10 8 6 7 9 11 11 10 10 9 9 9 9 9 8 6 6 6 5 10 10 8 4 5 3 2 1 4 11 16 12 7 9 9 6 5 7 5 9 10 11 13 12 10 9 10 10 10 10 9 7 8 10
Wind_Direction
5 4 3 2 1 1 359 359 356 354 352 351 348 346 343 340 338 336 334 329 326 324 322 320 317 316 313 313 315 314 318 313 301 282 238 252 258 252 248 240 245 259 212 201 205 195 184 195 200 199 208 206 210 232 217 211 210 193 129 230 252 252 249 278 294 327 332 332 5 334 100 93 210 179 127 118 135 156 160 160 139 134 134 138 139 141 148 144
3 2 2 1 360 359 358 357 353 351 351 350 348 346 342 340 337 335 333 329 327 324 322 320 316 314 311 312 314 317 323 309 291 264 252 257 261 257 253 233 226 241 201 189 204 203 186 190 198 196 205 212 208 218 223 215 210 203 170 221 234 244 242 246 286 304 310 326 346 319 107 150 202 162 122 134 147 159 151 142 131 129 131 132 137 143 150 145
1 359 359 359 358 357 356 355 352 351 351 350 348 345 342 340 337 335 334 330 326 324 322 318 315 312 310 310 315 326 323 306 287 260 269 269 254 247 247 234 214 218 208 194 199 204 199 190 193 198 202 213 215 210 214 215 211 204 197 231 230 234 252 241 273 289 294 315 335 319 342 296 210 137 138 140 134 134 124 127 131 133 135 138 142 147 154 151
1 357 357 358 357 355 354 353 351 350 349 349 347 345 344 341 339 336 333 330 326 324 321 318 315 309 308 310 316 336 319 297 266 252 293 295 246 235 233 230 214 207 212 201 198 209 214 199 192 198 204 211 218 218 216 212 210 198 193 226 225 217 243 239 242 273 306 336 343 317 324 315 223 136 148 142 134 133 127 131 136 138 141 144 146 151 159 155
1 358 358 357 355 354 352 351 349 348 348 348 346 345 344 342 340 336 332 329 326 324 321 319 314 309 308 309 319 1 324 290 205 68 9 3 259 227 218 218 210 206 207 200 204 218 227 218 199 197 206 216 216 221 225 215 211 206 208 223 216 193 210 226 221 234 304 53 19 295 278 268 187 141 147 151 148 145 143 140 139 142 145 147 148 154 162 157
0 358 358 355 353 352 351 349 348 347 346 346 345 344 343 341 339 336 332 327 326 324 321 320 315 311 309 313 80 174 257 266 336 29 18 12 11 205 199 202 204 204 199 196 207 220 229 227 213 203 202 217 217 218 225 217 213 220 222 208 184 188 195 208 223 219 231 186 182 250 248 212 111 122 162 161 147 144 146 139 140 145 145 148 149 155 164 160
359 358 356 354 352 350 349 348 346 346 345 344 343 342 341 339 338 336 333 328 327 325 321 319 315 312 317 29 103 218 229 270 275 256 284 352 23 177 188 189 196 195 191 193 205 216 220 222 218 212 203 212 221 223 228 222 217 219 227 203 176 188 195 191 221 225 224 216 212 244 251 170 166 207 178 156 140 140 139 136 140 144 145 149 151 159 165 160
358 357 354 352 350 348 347 346 345 344 343 342 341 340 339 337 337 336 335 331 327 325 320 315 315 315 327 109 190 246 223 251 259 246 253 277 351 46 183 187 190 185 189 195 202 211 216 221 216 213 210 212 217 223 233 233 225 215 222 222 181 184 200 191 206 228 231 227 215 253 291 208 175 203 171 138 135 135 133 137 141 143 148 152 156 164 163 160
357 356 353 351 349 347 346 345 345 343 341 341 339 338 337 336 336 336 335 332 327 323 316 311 316 309 189 189 247 266 243 250 259 251 247 244 234 183 173 182 187 184 194 203 207 214 215 221 214 215 220 216 218 224 234 237 230 210 214 222 190 184 199 192 195 223 238 233 190 180 296 282 187 178 139 115 124 128 132 139 142 147 151 156 161 165 163 164
356 355 352 350 348 346 345 345 344 342 341 339 337 336 334 335 334 334 334 330 325 319 309 307 314 291 187 228 229 238 254 262 279 249 227 217 195 171 169 181 186 188 201 208 212 219 219 224 215 215 230 230 224 226 234 238 242 222 215 221 207 187 186 190 194 211 230 238 203 157 220 267 236 206 131 113 122 127 135 143 146 153 153 159 163 164 167 165
355 354 352 350 348 346 345 344 343 342 340 337 335 334 333 333 331 332 332 326 322 311 304 301 294 228 207 235 212 231 251 276 314 238 200 198 186 171 173 180 184 190 202 210 215 219 223 232 227 215 221 230 237 237 238 242 258 255 234 229 219 188 173 182 187 203 212 233 226 181 174 234 239 247 135 134 141 136 142 148 152 158 155 161 164 163 171 166
355 353 352 350 348 346 344 343 343 342 339 335 333 332 332 332 330 331 327 322 318 301 300 299 264 209 222 254 227 232 246 269 300 257 187 189 193 191 183 179 186 192 196 205 216 219 226 235 235 230 215 208 236 250 253 247 256 265 258 247 223 193 178 182 178 203 206 213 227 193 170 215 213 263 156 146 148 142 146 151 154 161 157 164 165 160 174 171
355 353 351 350 348 346 344 343 343 341 338 334 331 331 331 330 330 329 322 317 310 291 297 295 230 208 222 255 238 240 258 278 286 283 254 215 196 202 192 183 190 195 197 204 214 219 227 237 240 241 238 225 225 241 268 258 252 258 260 259 230 205 199 196 190 208 206 203 214 192 190 203 198 247 169 142 146 147 148 156 157 161 160 165 166 158 173 174
355 353 350 349 347 345 344 343 343 341 337 332 331 331 330 330 332 328 318 310 300 282 293 292 189 191 220 257 261 258 263 273 280 279 274 247 199 192 194 193 193 194 198 208 219 224 228 236 242 244 246 248 252 260 263 260 254 255 257 248 229 212 201 199 205 217 210 194 199 204 210 186 192 205 160 139 152 153 153 164 158 160 161 164 166 160 173 175
355 353 350 347 345 345 343 342 342 340 336 332 330 330 331 334 333 324 312 306 302 284 292 286 183 194 261 260 271 282 266 259 264 256 257 252 212 186 189 196 195 195 196 204 219 233 234 234 238 240 243 252 264 267 262 267 265 250 248 248 213 198 229 212 206 211 214 198 189 215 243 193 197 180 158 149 158 157 156 164 159 160 163 165 166 162 175 176
354 353 350 346 344 344 342 341 341 339 335 331 329 331 335 336 330 319 313 301 297 285 239 164 191 203 276 270 280 297 259 232 245 241 242 248 230 199 188 189 195 202 200 203 214 230 239 234 228 231 237 242 243 246 255 267 266 240 213 242 223 194 219 234 213 198 206 209 188 202 228 239 215 167 162 160 155 157 158 160 164 164 164 167 165 164 175 174
354 352 350 346 344 344 342 341 340 338 334 330 330 333 335 336 328 323 330 327 302 268 217 231 211 197 249 273 300 304 249 214 227 232 236 238 233 222 200 182 188 203 205 208 212 222 235 231 213 215 222 228 227 219 234 235 237 247 212 222 242 222 205 215 228 203 199 205 192 187 200 242 223 148 159 160 148 154 156 159 170 166 163 166 163 167 174 175
353 351 350 347 345 343 342 341 339 336 333 330 330 332 332 332 330 326 345 100 296 234 231 257 248 210 245 256 278 285 272 239 214 213 225 225 226 232 224 196 180 192 206 210 210 215 223 223 210 206 209 216 219 210 219 220 212 234 226 201 225 243 233 212 219 212 193 197 196 176 190 233 191 138 154 157 146 154 158 161 173 170 164 162 162 171 174 176
353 351 350 349 346 343 343 343 339 335 332 329 331 334 330 325 325 308 196 272 328 262 260 263 223 232 297 289 270 271 290 292 230 200 211 213 215 229 234 219 187 186 202 204 199 203 206 218 214 213 209 205 213 217 221 220 215 232 236 211 201 223 246 229 229 227 188 184 194 176 185 213 174 146 156 158 155 162 164 164 174 179 170 163 164 171 172 176
352 351 350 349 346 343 343 343 339 334 332 329 329 331 331 343 339 253 287 306 281 268 265 265 248 256 284 289 289 290 302 309 277 193 200 204 200 213 231 226 195 189 203 202 193 194 201 222 221 218 212 202 208 219 228 230 228 237 242 234 213 206 227 234 242 244 192 172 189 183 182 196 182 163 163 165 166 166 168 169 173 179 174 171 169 168 172 176
351 350 350 349 346 343 342 344 341 334 334 330 327 328 0 7 352 324 321 298 265 254 253 257 250 253 265 269 278 288 306 312 306 234 202 199 193 194 212 219 203 197 201 201 195 188 200 225 226 217 212 210 208 212 223 232 235 239 245 253 236 213 216 219 236 249 212 178 186 181 181 193 190 180 171 170 169 166 172 175 174 177 173 173 171 169 172 173
350 349 349 347 346 343 341 344 342 336 340 337 335 352 15 358 338 323 319 297 273 258 251 253 247 249 253 253 263 269 277 280 291 283 207 189 193 191 193 210 209 202 192 196 202 187 203 228 225 212 208 214 215 210 212 224 235 237 240 257 260 246 234 213 226 243 218 179 178 176 181 198 196 194 180 168 169 171 173 171 172 174 170 173 175 171 171 169
349 348 348 346 345 342 341 345 343 343 346 336 336 2 357 344 336 328 318 296 288 268 247 243 238 240 238 242 253 252 244 242 262 276 220 186 192 194 194 207 206 204 192 195 206 194 208 226 215 210 211 210 216 217 212 215 229 237 233 239 251 255 260 227 218 229 210 170 167 171 181 201 197 202 190 166 168 176 174 170 172 174 171 176 179 174 171 170
349 348 347 345 344 342 341 343 345 348 343 330 339 358 348 338 336 335 324 282 287 276 250 236 228 234 230 227 237 226 217 227 238 262 229 191 188 193 202 209 201 206 201 197 207 213 224 216 186 207 220 211 212 217 216 213 215 229 233 232 241 246 256 263 240 228 210 182 171 164 175 211 196 197 196 167 169 177 177 173 176 182 180 176 177 176 175 174
349 347 346 345 344 341 339 343 353 346 338 334 352 351 340 335 334 335 329 282 282 278 254 226 217 238 234 227 230 211 202 225 228 245 235 199 188 189 203 212 202 206 205 199 207 221 232 217 177 200 216 215 214 212 215 216 208 220 228 232 242 244 247 258 264 255 224 202 181 161 169 232 208 194 192 178 177 179 177 177 182 187 183 176 175 176 176 177
348 347 346 345 343 341 342 351 344 337 330 336 350 340 333 332 330 328 324 285 282 278 292 152 183 211 222 217 215 206 215 227 222 234 243 212 195 196 206 207 202 207 204 200 211 223 224 222 205 200 206 214 218 214 210 212 218 217 211 221 238 249 252 252 263 264 223 221 193 171 171 220 206 197 193 187 187 186 179 179 186 189 182 176 177 176 175 175
346 345 346 345 343 344 345 321 327 332 326 330 337 333 329 328 325 322 314 240 282 296 25 103 202 171 190 185 171 189 227 183 193 226 235 215 197 204 216 207 195 204 200 195 216 218 199 211 221 211 205 209 215 219 207 205 221 224 195 204 221 239 253 256 263 266 248 274 220 187 173 164 196 203 197 190 190 194 186 177 182 188 184 179 179 176 175 175
345 344 346 345 342 346 335 309 317 320 312 323 329 328 326 323 319 315 316 296 305 339 20 355 350 17 324 252 170 198 252 136 163 219 224 214 200 198 219 216 205 198 200 210 214 200 192 205 217 218 213 209 208 213 208 207 219 225 210 207 206 216 237 253 261 265 271 301 268 206 177 160 213 219 201 192 190 198 198 181 178 184 186 183 180 176 175 177
344 343 346 342 339 349 341 320 307 295 312 325 328 325 320 316 314 299 183 285 291 350 6 354 352 350 334 328 183 210 251 180 180 196 203 217 207 203 223 218 219 209 205 224 227 200 199 204 209 220 224 215 205 202 205 213 216 217 225 229 218 208 216 234 246 261 282 281 266 233 192 183 229 224 199 195 195 197 199 191 178 180 185 183 178 177 175 175
344 342 344 340 334 340 339 328 311 306 325 331 325 322 317 310 307 226 247 273 320 351 360 4 352 344 340 342 266 222 230 235 266 184 187 213 205 205 216 206 228 237 215 226 234 229 227 206 199 217 229 221 210 197 198 211 214 209 218 232 243 224 207 214 225 243 271 260 254 249 229 223 244 230 201 193 196 193 189 194 186 177 180 182 177 176 174 172
342 341 342 336 328 328 325 322 320 315 324 329 323 319 313 300 241 229 266 308 333 349 357 351 345 343 339 338 326 276 233 235 267 237 191 199 200 201 199 194 219 240 235 226 225 231 237 228 204 205 218 224 225 206 194 201 208 210 207 212 235 247 224 214 198 207 233 243 249 256 256 254 249 234 218 199 189 188 184 191 195 179 175 180 179 174 172 172
340 340 340 331 324 318 294 295 313 309 317 327 323 315 307 311 248 237 296 322 323 350 354 339 338 336 327 322 315 301 279 231 236 256 228 191 201 200 197 204 192 203 234 230 211 219 229 236 234 211 205 213 226 218 194 194 199 205 203 192 207 221 213 217 197 197 222 235 235 253 265 257 249 241 234 228 194 188 186 189 197 185 172 174 175 173 172 171
339 341 337 323 315 305 288 290 298 302 321 328 317 295 295 312 310 308 329 340 336 337 339 335 330 323 318 316 309 311 312 278 218 242 249 204 203 202 199 209 198 196 222 227 210 212 217 230 236 231 206 199 217 218 189 192 191 195 201 186 187 197 194 204 212 206 218 225 212 227 252 249 253 260 230 235 243 210 187 186 196 183 170 172 171 171 172 170
339 341 335 321 311 299 286 281 283 302 322 320 302 297 305 280 322 353 350 349 334 326 331 341 329 318 318 305 300 345 344 321 313 274 256 221 208 209 197 204 212 213 215 220 224 218 217 219 221 228 211 178 205 223 200 184 185 194 201 191 188 195 188 185 199 201 194 210 203 210 229 217 210 218 197 214 248 247 209 188 196 174 164 171 169 168 170 169
340 343 338 324 310 301 291 278 287 313 320 309 296 320 317 301 333 2 357 341 332 326 330 338 330 318 323 315 327 13 13 327 339 335 284 238 216 219 199 196 210 219 211 211 226 220 224 230 209 219 226 187 193 214 213 188 188 193 192 204 202 184 173 168 190 181 151 161 207 209 230 209 215 238 203 193 214 237 245 216 202 175 159 166 168 166 169 171
343 345 339 322 308 304 330 337 321 320 309 291 311 326 329 332 335 351 351 338 327 322 323 331 334 321 325 340 350 359 357 338 348 350 320 302 258 219 208 192 197 213 224 223 232 225 226 233 199 198 223 219 195 199 212 204 187 175 191 210 191 159 186 210 202 170 143 197 218 213 251 257 252 270 251 212 199 214 233 232 219 183 160 164 167 167 170 171
340 339 327 312 304 297 341 349 327 311 298 293 319 315 311 312 327 338 339 338 321 315 319 322 338 338 329 338 343 343 345 343 350 354 331 322 308 239 235 206 182 201 224 234 246 244 245 242 207 193 210 223 208 195 209 215 201 177 190 195 148 151 210 217 208 179 174 213 209 202 225 220 207 236 241 233 223 214 216 220 225 196 163 165 166 168 171 169
331 322 293 287 286 285 344 336 311 300 286 270 290 294 305 299 316 337 336 337 320 312 319 312 331 349 331 327 330 337 342 339 342 342 325 324 340 0 0 340 337 332 272 257 253 244 259 262 220 204 202 211 209 197 204 216 217 208 176 162 159 196 205 185 204 198 182 210 218 209 216 210 202 203 202 217 226 226 212 206 213 200 168 167 167 169 173 169
330 323 281 303 21 24 340 322 297 288 264 262 289 315 326 317 329 339 325 325 322 315 318 312 324 335 324 324 324 335 347 337 333 335 327 336 320 334 7 15 345 345 339 316 284 245 254 267 235 216 198 192 197 200 200 205 214 218 183 162 182 206 180 170 203 202 174 199 213 217 218 213 219 203 190 202 213 215 207 194 201 196 171 168 169 168 171 169
337 330 280 356 20 354 333 325 290 264 258 284 315 321 313 320 337 333 319 320 328 311 310 314 320 319 316 321 321 334 351 334 331 327 305 321 319 322 4 16 344 337 337 327 311 270 249 241 258 242 200 185 190 202 200 191 196 211 201 179 185 186 163 176 204 210 196 197 195 212 232 235 236 208 187 193 200 200 195 183 191 191 172 169 172 168 166 168
325 315 274 341 345 326 333 346 295 262 222 270 310 330 325 327 323 319 321 330 326 299 306 311 311 316 317 320 326 339 340 327 327 321 299 317 331 336 354 355 345 339 334 329 329 328 282 233 250 262 221 197 195 196 196 189 189 203 208 189 181 179 173 182 203 210 203 224 224 207 251 254 248 235 190 186 190 191 183 176 183 189 179 174 174 173 167 168
314 311 293 319 327 322 333 357 290 302 42 313 325 338 333 322 310 318 332 332 321 309 318 315 313 323 324 325 333 333 326 321 316 314 320 326 324 326 336 339 343 342 335 326 326 333 326 262 236 247 253 240 210 192 186 187 188 198 213 210 184 181 181 180 194 196 188 226 249 243 278 265 266 277 197 179 179 172 162 168 177 189 194 179 173 175 172 168
320 308 298 309 331 345 348 291 305 324 354 333 327 333 330 315 317 336 336 323 317 321 325 320 324 331 329 329 329 319 316 321 319 324 334 326 317 324 329 334 343 342 335 332 334 337 334 309 239 241 255 276 248 200 178 180 185 195 212 214 204 192 185 177 177 172 171 202 219 227 267 262 291 326 65 145 151 144 146 167 177 186 203 181 166 172 172 167
302 298 296 315 347 1 343 302 327 315 322 331 330 336 327 311 327 340 329 317 311 315 322 322 330 335 330 328 323 319 326 333 327 333 335 320 314 322 324 332 343 338 328 332 335 330 318 305 309 269 237 254 249 199 175 178 186 196 204 207 220 207 180 177 185 163 174 200 189 178 244 255 282 339 41 90 121 135 153 174 176 180 196 177 157 164 168 163
306 288 279 326 348 352 327 339 342 326 338 341 335 334 320 314 339 333 315 310 301 315 330 324 326 327 319 318 313 317 335 351 336 323 323 313 309 315 321 329 332 321 312 323 327 317 284 276 296 282 232 226 225 192 176 178 183 196 198 197 216 219 190 178 178 164 194 207 189 177 221 260 285 17 58 73 103 137 164 172 164 169 176 164 156 161 165 164
322 319 315 337 346 339 332 351 349 350 353 341 332 327 317 320 329 318 314 313 311 332 333 315 323 322 314 318 317 319 341 358 340 307 309 318 315 312 316 319 317 310 314 326 330 324 274 261 263 253 247 241 256 274 210 176 174 190 199 194 205 218 210 180 163 181 189 182 196 198 184 213 259 78 94 126 144 148 159 138 113 113 98 112 156 161 163 168
327 322 329 342 335 329 343 349 354 354 332 319 320 320 320 322 315 318 334 324 321 337 330 318 328 319 315 327 326 328 341 340 316 306 312 318 318 313 314 314 309 311 321 330 333 327 292 276 276 265 264 254 264 287 269 185 173 181 194 199 197 205 216 206 175 184 165 140 204 218 161 162 219 196 166 194 180 151 135 109 99 102 87 101 158 165 166 172
353 309 332 354 341 326 335 331 331 325 310 311 320 317 320 321 311 320 333 313 316 345 1 331 319 310 317 332 329 325 334 325 309 319 324 321 326 324 322 320 316 325 338 333 330 331 301 288 313 303 294 287 275 281 283 229 179 176 188 206 202 195 208 216 191 169 157 147 210 212 159 162 211 207 201 213 175 140 125 108 101 99 86 92 143 156 154 154
346 291 326 2 344 307 307 303 303 306 308 315 315 309 324 328 323 330 331 314 314 341 0 317 307 313 319 327 327 321 333 332 320 326 322 317 329 333 326 322 322 345 357 334 324 331 310 311 338 326 305 298 293 291 299 301 253 173 185 206 215 199 198 210 214 180 163 167 197 184 161 178 202 183 190 212 134 117 115 107 93 87 84 82 107 124 120 115
341 304 328 345 318 296 295 295 300 307 314 314 306 316 333 324 317 318 315 312 310 319 332 309 304 314 315 318 324 319 325 329 311 310 308 307 322 326 320 319 315 328 340 333 322 322 317 328 335 330 316 295 301 314 310 298 284 288 198 205 213 210 195 200 215 211 170 172 193 169 148 183 189 137 128 91 81 88 93 94 85 84 95 93 95 104 105 103
266 275 320 324 311 304 301 304 309 308 308 308 312 330 331 321 323 317 303 308 311 312 320 312 306 307 305 309 316 312 317 314 291 286 289 289 290 282 279 292 304 315 324 324 320 318 319 327 330 336 341 316 319 317 297 298 303 311 289 220 208 215 201 192 203 219 189 170 182 156 131 195 183 107 89 74 75 75 72 75 69 64 75 83 86 107 122 121
276 269 274 300 297 298 299 304 305 298 298 305 312 325 327 328 336 330 314 317 319 315 315 307 300 298 303 310 312 311 316 306 290 284 277 276 274 258 255 268 277 287 299 306 311 311 312 320 333 345 333 320 339 308 278 306 336 298 267 242 163 358 261 196 192 213 210 166 169 168 178 206 169 110 97 80 73 72 68 71 74 66 58 56 56 72 111 127